Weather History for K06D - March, 2013

Change the Weather History Date:

Thursday, March 7, 2013

  Actual Average (KRUG) Record (KRUG)
Temperature  
Mean Temperature 14 °F -  
Max Temperature 21 °F 29 °F 56 °F (1977)
Min Temperature 8 °F 8 °F -20 °F (1982)
Degree Days  
Heating Degree Days 50    
Moisture  
Dew Point 14 °F    
Average Humidity 99    
Maximum Humidity 100    
Minimum Humidity 92    
Precipitation  
Precipitation 0.00 in - - ()
Sea Level Pressure  
Sea Level Pressure 30.11 in    
Wind  
Wind Speed 15 mph (SSE)    
Max Wind Speed 20 mph    
Max Gust Speed 24 mph    
Visibility 7 miles    
Events Rain    
Averages and records for this station are not official NWS values.
T = Trace of Precipitation, MM = Missing Value Source: NWS Daily Summary

Daily Weather History Graph

Daily Weather History Graph

Search for Another Location

Airport or City:

Trip Planner

Search our weather history database for the weather conditions in past years. The results will help you decide how hot, cold, wet, or windy it might be!

Date:

Astronomy

Mar. 07, 2013 Rise Set
Actual Time 7:07 AM CST 6:31 PM CST
Civil Twilight 6:36 AM CST 7:03 PM CST
Nautical Twilight 5:59 AM CST 7:40 PM CST
Astronomical Twilight 5:22 AM CST 8:17 PM CST
Moon 4:27 AM CST (3/7) 2:04 PM CST (3/7)
Length of Visible Light 12h 27m
Length of Day
11h 24m
Waning Crescent, 20% of the Moon is Illuminated
Mar 7
Waning Crescent
Mar 11
New
Mar 19
First Quarter
Mar 27
Full
Apr 2
Last Quarter

Hourly Weather History & Observations

Time (CST) Temp. Windchill Dew Point Humidity Pressure Visibility Wind Dir Wind Speed Gust Speed Precip Events Conditions
12:15 AM 10.4 °F -6.6 °F 10.4 °F 100% 30.19 in 10.0 mi SSE 16.1 mph - N/A Rain Light Freezing Rain
12:35 AM 10.4 °F -4.8 °F 10.4 °F 100% 30.18 in 3.0 mi SSE 12.7 mph - N/A Rain Light Freezing Rain
12:55 AM 10.4 °F -4.8 °F 10.4 °F 100% 30.17 in 3.0 mi SE 12.7 mph - N/A Rain Light Freezing Rain
1:15 AM 10.4 °F -5.4 °F 10.4 °F 100% 30.17 in 4.0 mi SE 13.8 mph - N/A Rain Light Freezing Rain
1:35 AM 12.2 °F -3.1 °F 10.4 °F 92% 30.18 in 3.0 mi SSE 13.8 mph - N/A Rain Light Freezing Rain
1:55 AM 12.2 °F -2.5 °F 10.4 °F 92% 30.18 in 5.0 mi SSE 12.7 mph - N/A Rain Light Freezing Rain
2:15 AM 12.2 °F -3.7 °F 12.2 °F 100% 30.17 in 8.0 mi SSE 15.0 mph - N/A Rain Light Freezing Rain
2:35 AM 12.2 °F -3.7 °F 12.2 °F 100% 30.16 in 5.0 mi SE 15.0 mph - N/A Rain Light Freezing Rain
2:55 AM 12.2 °F -5.3 °F 12.2 °F 100% 30.16 in 5.0 mi SE 18.4 mph - N/A Rain Light Freezing Rain
3:15 AM 12.2 °F -5.3 °F 12.2 °F 100% 30.15 in 5.0 mi SE 18.4 mph - N/A Rain Light Freezing Rain
3:35 AM 12.2 °F -4.3 °F 10.4 °F 92% 30.14 in 4.0 mi SE 16.1 mph - N/A Rain Light Freezing Rain
3:55 AM 10.4 °F -6.6 °F 10.4 °F 100% 30.14 in 5.0 mi SE 16.1 mph - N/A Rain Light Freezing Rain
4:15 AM 10.4 °F -5.4 °F 10.4 °F 100% 30.14 in 5.0 mi SE 13.8 mph - N/A Rain Light Freezing Rain
4:35 AM 10.4 °F -4.8 °F 10.4 °F 100% 30.13 in 5.0 mi SE 12.7 mph - N/A Rain Light Freezing Rain
4:55 AM 10.4 °F -7.2 °F 8.6 °F 92% 30.13 in 3.0 mi SE 17.3 mph - N/A Rain Light Freezing Rain
5:15 AM 8.6 °F -9.5 °F 8.6 °F 100% 30.12 in 4.0 mi SE 17.3 mph 21.9 mph N/A Rain Light Freezing Rain
5:35 AM 8.6 °F -10.5 °F 8.6 °F 100% 30.12 in 3.0 mi SE 19.6 mph 24.2 mph N/A Rain Light Freezing Rain
5:55 AM 8.6 °F -10.0 °F 8.6 °F 100% 30.11 in 2.0 mi SE 18.4 mph - N/A Rain Light Freezing Rain
6:15 AM 8.6 °F -10.5 °F 8.6 °F 100% 30.11 in 2.5 mi SE 19.6 mph - N/A Rain Light Freezing Rain
6:35 AM 8.6 °F -8.9 °F 8.6 °F 100% 30.12 in 3.0 mi SSE 16.1 mph - N/A Rain Light Freezing Rain
6:55 AM 8.6 °F -10.0 °F 8.6 °F 100% 30.12 in 3.0 mi SE 18.4 mph - N/A Rain Light Freezing Rain
7:15 AM 8.6 °F -8.3 °F 8.6 °F 100% 30.12 in 3.0 mi SE 15.0 mph - N/A Rain Light Freezing Rain
7:35 AM 8.6 °F -7.0 °F 8.6 °F 100% 30.12 in 8.0 mi SSE 12.7 mph - N/A Rain Light Freezing Rain
7:55 AM 10.4 °F -4.1 °F 8.6 °F 92% 30.11 in 6.0 mi SSE 11.5 mph - N/A Rain Light Freezing Rain
8:15 AM 10.4 °F -6.6 °F 10.4 °F 100% 30.11 in 7.0 mi SSE 16.1 mph - N/A Rain Light Freezing Rain
8:35 AM 10.4 °F -6.6 °F 10.4 °F 100% 30.11 in 7.0 mi SSE 16.1 mph 19.6 mph N/A Rain Light Freezing Rain
8:55 AM 10.4 °F -5.4 °F 10.4 °F 100% 30.11 in 7.0 mi SSE 13.8 mph - N/A Rain Light Freezing Rain
9:15 AM 10.4 °F -6.6 °F 10.4 °F 100% 30.11 in 10.0 mi SSE 16.1 mph - N/A Rain Light Freezing Rain
9:35 AM 10.4 °F -7.2 °F 10.4 °F 100% 30.11 in 8.0 mi SSE 17.3 mph - N/A Rain Light Freezing Rain
9:55 AM 12.2 °F -5.8 °F 10.4 °F 92% 30.11 in 8.0 mi SE 19.6 mph - N/A Rain Light Freezing Rain
10:15 AM 10.4 °F -7.7 °F 10.4 °F 100% 30.10 in 4.0 mi SE 18.4 mph - N/A Rain Light Freezing Rain
10:35 AM 12.2 °F -3.7 °F 10.4 °F 92% 30.10 in 5.0 mi SSE 15.0 mph - N/A Rain Light Freezing Rain
10:55 AM 14.0 °F -2.0 °F 12.2 °F 93% 30.10 in 5.0 mi SSE 16.1 mph - N/A Rain Light Freezing Rain
11:15 AM 14.0 °F -0.8 °F 12.2 °F 93% 30.10 in 7.0 mi SSE 13.8 mph - N/A Rain Light Freezing Rain
11:35 AM 14.0 °F 0.5 °F 12.2 °F 93% 30.10 in 10.0 mi SSE 11.5 mph - N/A Rain Light Freezing Rain
11:55 AM 14.0 °F 0.5 °F 14.0 °F 100% 30.11 in 10.0 mi SSE 11.5 mph 17.3 mph N/A Rain Light Freezing Rain
12:15 PM 15.8 °F 1.4 °F 14.0 °F 93% 30.12 in 10.0 mi South 13.8 mph - N/A Rain Light Freezing Rain
12:35 PM 14.0 °F -0.2 °F 14.0 °F 100% 30.11 in 10.0 mi South 12.7 mph - N/A Rain Light Freezing Rain
12:55 PM 15.8 °F 3.4 °F 14.0 °F 93% 30.10 in 10.0 mi South 10.4 mph - N/A Rain Light Freezing Rain
1:15 PM 15.8 °F 0.9 °F 14.0 °F 93% 30.08 in 10.0 mi SSE 15.0 mph - N/A Rain Light Freezing Rain
1:35 PM 15.8 °F 1.4 °F 15.8 °F 100% 30.08 in 10.0 mi SSE 13.8 mph - N/A Rain Light Freezing Rain
1:55 PM 15.8 °F 0.3 °F 15.8 °F 100% 30.07 in 10.0 mi SSE 16.1 mph - N/A Rain Light Freezing Rain
2:15 PM 15.8 °F 1.4 °F 15.8 °F 100% 30.07 in 10.0 mi SSE 13.8 mph - N/A Rain Light Freezing Rain
2:35 PM 15.8 °F 0.3 °F 15.8 °F 100% 30.06 in 10.0 mi SSE 16.1 mph - N/A Rain Light Freezing Rain
2:55 PM 17.6 °F 3.7 °F 17.6 °F 100% 30.07 in 10.0 mi SSE 13.8 mph - N/A Rain Light Freezing Rain
3:15 PM 17.6 °F 4.3 °F 17.6 °F 100% 30.07 in 10.0 mi SSE 12.7 mph - N/A Rain Light Freezing Rain
3:35 PM 17.6 °F 3.7 °F 17.6 °F 100% 30.07 in 10.0 mi South 13.8 mph - N/A Rain Light Freezing Rain
3:55 PM 17.6 °F 3.2 °F 17.6 °F 100% 30.07 in 10.0 mi SSE 15.0 mph - N/A Rain Light Freezing Rain
4:15 PM 17.6 °F 4.3 °F 17.6 °F 100% 30.07 in 10.0 mi South 12.7 mph - N/A Rain Light Freezing Rain
4:35 PM 17.6 °F 3.7 °F 17.6 °F 100% 30.08 in 10.0 mi South 13.8 mph - N/A Rain Light Freezing Rain
4:55 PM 17.6 °F 2.7 °F 17.6 °F 100% 30.07 in 10.0 mi South 16.1 mph - N/A Rain Light Freezing Rain
5:15 PM 19.4 °F 6.0 °F 19.4 °F 100% 30.08 in 9.0 mi South 13.8 mph - N/A Rain Light Freezing Rain
5:35 PM 19.4 °F 5.5 °F 19.4 °F 100% 30.07 in 8.0 mi South 15.0 mph 20.7 mph N/A Rain Light Freezing Rain
5:55 PM 17.6 °F 3.7 °F 17.6 °F 100% 30.07 in 5.0 mi South 13.8 mph 20.7 mph N/A Rain Light Freezing Rain
7:35 PM 17.6 °F 4.3 °F 17.6 °F 100% 30.07 in 2.5 mi South 12.7 mph - N/A Rain Light Freezing Rain
7:55 PM 19.4 °F 5.5 °F 19.4 °F 100% 30.07 in 3.0 mi South 15.0 mph - N/A Rain Light Freezing Rain
8:15 PM 19.4 °F 6.0 °F 19.4 °F 100% 30.07 in 3.0 mi South 13.8 mph 20.7 mph N/A Rain Light Freezing Rain
8:35 PM 19.4 °F 4.5 °F 19.4 °F 100% 30.07 in 3.0 mi SSW 17.3 mph - N/A Rain Light Freezing Rain
8:55 PM 19.4 °F 6.0 °F 19.4 °F 100% 30.07 in 4.0 mi SSW 13.8 mph - N/A Rain Light Freezing Rain
9:15 PM 19.4 °F 8.6 °F 19.4 °F 100% 30.07 in 5.0 mi SW 9.2 mph - N/A Rain Light Freezing Rain
9:35 PM 19.4 °F 7.2 °F 19.4 °F 100% 30.08 in 3.0 mi SW 11.5 mph - N/A Rain Light Freezing Rain
9:55 PM 19.4 °F 7.2 °F 19.4 °F 100% 30.08 in 4.0 mi SW 11.5 mph - N/A Rain Light Freezing Rain
10:15 PM 19.4 °F 7.9 °F 19.4 °F 100% 30.08 in 5.0 mi SW 10.4 mph - N/A Rain Light Freezing Rain
10:35 PM 19.4 °F 7.2 °F 19.4 °F 100% 30.08 in 9.0 mi SW 11.5 mph - N/A Rain Light Freezing Rain
10:55 PM 21.2 °F 10.1 °F 21.2 °F 100% 30.09 in 10.0 mi SW 10.4 mph - N/A Rain Light Freezing Rain
11:15 PM 21.2 °F 10.9 °F 21.2 °F 100% 30.09 in 10.0 mi SW 9.2 mph - N/A Rain Light Freezing Rain
11:35 PM 21.2 °F 10.9 °F 21.2 °F 100% 30.08 in 10.0 mi SW 9.2 mph - N/A Rain Light Freezing Rain
11:55 PM 21.2 °F 10.9 °F 21.2 °F 100% 30.08 in 8.0 mi SW 9.2 mph - N/A Rain Light Freezing Rain